Location: ASU Dark Sky Observatory
(36.2504°N, 81.4125°W)
Time: 01:09:30
(UTC-04:00)

ETS-7 - Visible Passes

Search period start: 26 October 2014 00:00
Search period end: 04 November 2014 23:00
Orbit: 404 x 408 km, 35.0° (Epoch: 24 October)

Date Brightness Start Highest point End Pass type
(mag) Time Alt. Az. Time Alt. Az. Time Alt. Az.
02 Nov 4.8 06:00:43 10° SSW 06:02:58 17° SSE 06:05:13 10° ESE visible
03 Nov 5.0 05:07:48 10° S 05:09:12 12° SSE 05:10:35 10° SE visible
04 Nov 3.7 05:49:35 10° SW 05:52:33 31° SSE 05:55:31 10° E visible
